Time,TemperatureF,DewpointF,PressureIn,WindDirection,WindDirectionDegrees,WindSpeedMPH,WindSpeedGustMPH,Humidity,HourlyPrecipIn,Conditions,Clouds,dailyrainin,SoftwareType,DateUTC
2013-05-18 00:01:00,61.0,-99.9,-100.00,WNW,297,12.0,21.0,-999,-99.99,,,-99.99,,2013-05-18 07:01:00,
2013-05-18 00:12:00,61.0,-99.9,-100.00,WNW,297,12.0,21.0,-999,-99.99,,,-99.99,,2013-05-18 07:12:00,
2013-05-18 01:02:00,59.0,-99.9,-100.00,West,265,9.0,16.0,-999,-99.99,,,-99.99,,2013-05-18 08:02:00,
2013-05-18 01:11:00,59.0,-99.9,-100.00,West,265,9.0,16.0,-999,-99.99,,,-99.99,,2013-05-18 08:11:00,
2013-05-18 02:02:00,57.0,-99.9,-100.00,West,274,7.0,13.0,-999,-99.99,,,-99.99,,2013-05-18 09:02:00,
2013-05-18 02:12:00,57.0,-99.9,-100.00,West,274,7.0,13.0,-999,-99.99,,,-99.99,,2013-05-18 09:12:00,
2013-05-18 03:03:00,53.0,-99.9,-100.00,West,259,5.0,8.0,-999,-99.99,,,-99.99,,2013-05-18 10:03:00,
2013-05-18 03:12:00,53.0,-99.9,-100.00,West,259,5.0,8.0,-999,-99.99,,,-99.99,,2013-05-18 10:12:00,
2013-05-18 04:03:00,51.0,-99.9,-100.00,WNW,294,3.0,6.0,-999,-99.99,,,-99.99,,2013-05-18 11:03:00,
2013-05-18 04:12:00,51.0,-99.9,-100.00,WNW,294,3.0,6.0,-999,-99.99,,,-99.99,,2013-05-18 11:12:00,
2013-05-18 05:02:00,50.0,-99.9,-100.00,West,262,1.0,2.0,-999,-99.99,,,-99.99,,2013-05-18 12:02:00,
2013-05-18 05:12:00,50.0,-99.9,-100.00,West,262,1.0,2.0,-999,-99.99,,,-99.99,,2013-05-18 12:12:00,
2013-05-18 06:01:00,51.0,-99.9,-100.00,SSW,193,1.0,3.0,-999,-99.99,,,-99.99,,2013-05-18 13:01:00,
2013-05-18 06:12:00,51.0,-99.9,-100.00,SSW,193,1.0,3.0,-999,-99.99,,,-99.99,,2013-05-18 13:12:00,
2013-05-18 07:04:00,55.0,-99.9,-100.00,WSW,257,6.0,9.0,-999,-99.99,,,-99.99,,2013-05-18 14:04:00,
2013-05-18 07:12:00,55.0,-99.9,-100.00,WSW,257,6.0,9.0,-999,-99.99,,,-99.99,,2013-05-18 14:12:00,
2013-05-18 08:03:00,60.0,-99.9,-100.00,West,271,10.0,14.0,-999,-99.99,,,-99.99,,2013-05-18 15:03:00,
2013-05-18 08:13:00,60.0,-99.9,-100.00,West,271,10.0,14.0,-999,-99.99,,,-99.99,,2013-05-18 15:13:00,
2013-05-18 09:03:00,61.0,-99.9,-100.00,West,266,6.0,13.0,-999,-99.99,,,-99.99,,2013-05-18 16:03:00,
2013-05-18 09:13:00,61.0,-99.9,-100.00,West,266,6.0,13.0,-999,-99.99,,,-99.99,,2013-05-18 16:13:00,
2013-05-18 10:03:00,63.0,-99.9,-100.00,NW,304,5.0,12.0,-999,-99.99,,,-99.99,,2013-05-18 17:03:00,
2013-05-18 10:12:00,63.0,-99.9,-100.00,NW,304,5.0,12.0,-999,-99.99,,,-99.99,,2013-05-18 17:12:00,
2013-05-18 11:02:00,66.0,-99.9,-100.00,WSW,244,5.0,12.0,-999,-99.99,,,-99.99,,2013-05-18 18:02:00,
2013-05-18 11:12:00,66.0,-99.9,-100.00,WSW,244,5.0,12.0,-999,-99.99,,,-99.99,,2013-05-18 18:12:00,
2013-05-18 12:02:00,67.0,-99.9,-100.00,South,189,7.0,15.0,-999,-99.99,,,-99.99,,2013-05-18 19:02:00,
2013-05-18 12:12:00,67.0,-99.9,-100.00,South,189,7.0,15.0,-999,-99.99,,,-99.99,,2013-05-18 19:12:00,
2013-05-18 13:02:00,69.0,-99.9,-100.00,SE,144,6.0,14.0,-999,-99.99,,,-99.99,,2013-05-18 20:02:00,
2013-05-18 13:12:00,69.0,-99.9,-100.00,SE,144,6.0,14.0,-999,-99.99,,,-99.99,,2013-05-18 20:12:00,
2013-05-18 14:01:00,70.0,-99.9,-100.00,SW,217,10.0,18.0,-999,-99.99,,,-99.99,,2013-05-18 21:01:00,
2013-05-18 14:12:00,70.0,-99.9,-100.00,SW,217,10.0,18.0,-999,-99.99,,,-99.99,,2013-05-18 21:12:00,
2013-05-18 15:03:00,69.0,-99.9,-100.00,WSW,252,12.0,18.0,-999,-99.99,,,-99.99,,2013-05-18 22:03:00,
2013-05-18 15:13:00,69.0,-99.9,-100.00,WSW,252,12.0,18.0,-999,-99.99,,,-99.99,,2013-05-18 22:13:00,
2013-05-18 16:02:00,69.0,-99.9,-100.00,WSW,239,3.0,12.0,-999,-99.99,,,-99.99,,2013-05-18 23:02:00,
2013-05-18 16:12:00,69.0,-99.9,-100.00,WSW,239,3.0,12.0,-999,-99.99,,,-99.99,,2013-05-18 23:12:00,
2013-05-18 17:02:00,69.0,-99.9,-100.00,NW,313,6.0,17.0,-999,-99.99,,,-99.99,,2013-05-19 00:02:00,
2013-05-18 17:12:00,69.0,-99.9,-100.00,NW,313,6.0,17.0,-999,-99.99,,,-99.99,,2013-05-19 00:12:00,
2013-05-18 18:01:00,68.0,-99.9,-100.00,NW,306,7.0,15.0,-999,-99.99,,,-99.99,,2013-05-19 01:01:00,
2013-05-18 18:11:00,68.0,-99.9,-100.00,NW,306,7.0,15.0,-999,-99.99,,,-99.99,,2013-05-19 01:11:00,
2013-05-18 19:02:00,68.0,-99.9,-100.00,NNW,327,9.0,15.0,-999,-99.99,,,-99.99,,2013-05-19 02:02:00,
2013-05-18 19:11:00,68.0,-99.9,-100.00,NNW,327,9.0,15.0,-999,-99.99,,,-99.99,,2013-05-19 02:11:00,
2013-05-18 20:02:00,66.0,-99.9,-100.00,NW,318,12.0,20.0,-999,-99.99,,,-99.99,,2013-05-19 03:02:00,
2013-05-18 20:11:00,66.0,-99.9,-100.00,NW,318,12.0,20.0,-999,-99.99,,,-99.99,,2013-05-19 03:11:00,
2013-05-18 21:03:00,64.0,-99.9,-100.00,NNW,328,12.0,21.0,-999,-99.99,,,-99.99,,2013-05-19 04:03:00,
2013-05-18 21:13:00,64.0,-99.9,-100.00,NNW,328,12.0,21.0,-999,-99.99,,,-99.99,,2013-05-19 04:13:00,